SCP
0 0 1 1 0 0 0 0 0 0 0 0 0 0 0 0 0 0 0 0 0 0 0 0 0 0 0 0 0 0 0 0 0 0 0 0 0 0 0 0 0 0 0
0 0 1 1 0 0 0 0 0 0 0 0 0 0 0 0 0 0 0 0 0 0 0 0 0 0 0 0 0 0 0 0 0 0 0 0 0 0 0 0 0 0 0
0 0 0 1 1 0 0 0 0 0 0 0 0 0 0 0 0 0 0 0 0 0 0 0 0 0 0 0 0 0 0 0 0 0 0 0 0 0 0 0 0 0 0
0 0 0 1 1 1 0 0 0 0 0 0 0 0 0 0 0 0 0 0 0 0 0 0 0 0 0 0 0 0 0 0 0 0 0 0 0 0 0 0 0 0 0
0 0 1 1 1 1 1 0 0 0 0 0 0 0 0 0 0 0 0 0 0 0 0 0 0 0 0 0 0 0 0 0 0 0 0 0 0 0 0 0 0 0 0
0 0 1 1 1 1 1 1 0 0 0 0 0 0 0 0 0 0 0 0 0 0 0 0 0 0 0 0 0 0 0 0 0 0 0 0 0 0 0 0 0 0 0
0 0 1 1 1 1 1 1 1 0 0 0 0 0 0 0 0 0 0 0 0 0 0 0 0 0 0 0 0 0 0 0 0 0 0 0 0 0 0 0 0 0 0
0 0 0 0 0 1 1 1 1 0 0 0 0 0 0 0 0 0 0 0 0 0 0 0 0 0 0 0 0 0 0 0 0 0 0 0 0 0 0 0 0 0 0
0 0 0 0 0 0 0 0 0 0 0 0 0 0 0 0 0 0 0 0 0 0 0 0 0 0 0 0 0 0 0 0 0 0 0 0 0 0 0 0 0 0 0
0 0 0 0 0 0 0 0 0 0 0 0 0 0 0 0 0 0 0 0 0 0 0 0 0 0 0 0 0 0 0 0 0 0 0 0 0 0 0 0 0 0 0
1 1 1 0 0 1 0 0 0 0 0 0 0 0 0 0 0 0 0 0 0 0 0 0 0 0 0 0 0 0 0 0 0 0 0 0 0 0 0 0 0 0 0
1 1 1 1 1 1 1 0 0 0 0 0 0 0 0 0 0 0 0 0 0 0 0 0 0 0 0 0 0 0 0 0 0 0 0 0 0 0 0 0 0 0 0
1 1 1 1 1 1 1 1 1 1 0 0 0 0 0 0 0 0 0 0 0 0 0 0 0 0 0 1 1 1 0 0 0 0 0 0 0 0 0 0 0 0 0
1 1 1 1 0 0 1 1 1 1 1 0 0 0 0 0 0 0 0 0 0 0 0 0 0 0 0 0 0 0 0 0 0 0 0 0 0 0 0 0 0 0 0
1 1 1 0 0 0 0 1 1 1 1 0 0 0 0 0 0 0 0 0 0 0 0 0 0 0 0 0 0 0 0 0 0 0 0 0 0 0 0 0 0 0 0
1 1 1 0 0 0 0 0 1 1 1 1 1 0 0 0 0 0 0 0 0 0 0 0 0 0 0 0 0 0 0 0 0 0 0 0 0 0 0 0 0 0 0
1 1 1 1 0 0 0 0 0 1 1 1 1 0 0 0 0 0 0 0 0 0 0 0 0 0 0 0 0 0 0 0 0 0 0 0 0 0 0 0 0 0 0
0 0 1 1 0 0 0 0 0 1 1 1 1 1 0 0 0 0 0 0 0 0 0 0 0 0 0 0 0 0 0 0 0 0 0 0 0 0 0 0 0 0 0
0 0 0 0 0 0 0 0 0 0 1 1 1 1 0 0 0 0 0 0 0 0 0 0 0 0 0 0 0 0 0 0 0 0 0 0 0 0 0 0 0 0 0
0 0 0 0 0 0 0 0 0 0 1 1 1 1 0 0 0 0 0 0 0 0 0 0 0 0 0 0 0 0 0 0 0 0 0 0 0 0 0 0 0 0 0
0 0 0 0 0 0 0 0 0 0 1 1 1 1 0 0 0 0 0 0 0 0 0 0 0 0 0 0 0 0 0 0 0 0 0 0 0 0 0 0 0 0 0
0 0 0 0 0 0 0 0 0 0 0 1 1 1 1 0 0 0 0 1 0 0 0 0 0 0 0 0 0 0 0 0 0 0 0 0 0 0 0 0 0 0 0
0 0 0 0 0 0 0 0 0 0 0 1 1 1 0 0 0 0 0 0 0 0 0 0 0 0 0 0 0 1 1 0 0 0 0 0 0 0 0 0 0 0 0
0 0 0 0 0 0 0 0 0 0 0 0 0 0 0 0 0 0 0 0 0 0 0 0 0 0 0 0 0 1 1 0 0 0 0 0 0 0 0 0 0 0 0
0 0 0 0 0 0 0 0 0 0 0 0 0 0 0 0 0 0 0 0 0 0 0 0 0 0 0 0 0 0 0 0 0 0 0 0 0 0 0 0 0 0 0
0 0 0 0 0 0 0 0 0 0 0 0 0 0 0 0 0 0 0 0 0 0 0 0 0 0 0 0 0 0 0 0 0 0 0 0 0 0 0 0 0 0 0
Wind_Speed
1 1 2 3 6 8 8 9 9 9 10 10 11 11 11 11 11 11 11 11 11 11 11 11 11 11 11 11 11 11 10 10 10 9 8 8 8 8 9 8 6 6 8
2 2 2 3 6 8 8 9 9 9 9 10 10 11 11 10 10 10 10 10 10 11 11 11 10 11 10 10 10 10 10 9 9 8 6 5 7 7 7 7 7 6 7
3 3 3 4 6 7 8 8 9 9 10 10 10 10 10 10 9 9 9 9 9 9 9 9 9 9 9 9 9 9 9 8 8 6 3 4 5 7 7 6 6 6 6
3 3 4 5 6 7 8 8 9 9 9 9 10 10 9 9 9 8 8 8 9 9 8 8 8 8 8 8 8 8 8 8 6 3 2 4 4 6 6 6 6 6 5
4 4 5 7 8 8 8 9 9 9 9 10 10 10 9 9 8 8 8 8 8 8 8 8 8 8 7 7 7 6 6 6 5 2 3 3 4 5 5 6 6 5 5
4 4 6 8 8 9 8 8 9 9 10 10 10 10 9 8 8 8 8 8 8 8 7 8 8 8 7 7 7 7 6 5 3 4 4 4 4 6 6 6 6 5 5
5 4 5 7 8 8 9 8 8 9 9 10 10 10 10 10 9 9 9 8 8 7 7 7 8 7 7 7 7 7 6 5 4 4 4 4 5 6 6 6 7 6 6
5 4 5 8 8 8 8 8 8 8 9 9 9 9 10 10 10 9 8 8 8 8 7 7 7 7 7 7 8 8 7 5 3 4 4 5 7 7 7 7 7 8 7
5 4 4 4 5 7 8 8 8 8 8 8 9 9 9 9 10 9 9 8 8 8 8 7 7 7 7 7 7 7 7 6 3 4 5 5 8 8 8 7 7 7 7
4 4 3 3 3 3 4 7 7 8 8 8 8 8 7 7 8 9 8 8 8 7 7 7 7 7 7 7 7 6 5 3 4 4 3 5 9 8 8 8 8 8 8
4 3 3 3 2 2 3 4 5 5 6 6 6 6 4 3 4 4 7 8 8 8 7 6 6 6 5 5 6 5 3 2 4 4 4 8 8 8 8 8 8 8 8
2 2 2 2 2 2 2 2 2 2 2 3 3 3 2 2 3 3 5 6 7 6 6 6 6 4 2 2 3 2 2 3 3 3 5 8 8 8 8 8 7 7 7
1 2 2 2 2 1 1 1 1 1 1 2 2 2 2 2 2 2 1 2 3 3 3 3 2 2 3 3 2 2 3 2 2 3 5 9 8 8 8 8 8 7 7
1 1 1 1 1 1 1 1 1 1 1 1 1 2 1 1 1 1 1 2 2 2 2 2 2 3 3 3 3 3 3 2 2 2 5 10 9 9 8 8 9 8 7
1 1 1 1 1 1 1 1 1 1 1 1 1 1 1 1 1 1 1 2 2 2 2 2 2 2 2 3 3 3 3 3 3 2 3 9 10 9 9 9 9 8 8
1 1 1 1 1 1 1 1 1 1 1 1 1 2 2 1 1 1 1 2 2 2 2 2 2 2 2 2 3 3 3 3 3 3 3 5 8 9 9 9 9 9 9
1 1 1 1 1 1 0 1 1 1 1 1 1 1 1 1 1 1 1 1 1 2 2 1 2 1 1 2 2 2 2 2 2 3 3 3 4 7 9 9 10 10 10
1 1 1 1 1 0 0 0 1 1 1 1 1 1 1 1 1 1 1 1 2 1 1 1 1 1 1 1 2 2 1 1 2 2 2 3 3 3 5 8 9 10 10
1 1 1 1 0 0 0 1 1 1 1 1 1 1 2 2 1 1 1 1 1 1 1 1 1 1 1 1 1 1 1 1 2 2 2 3 3 4 3 5 8 10 10
1 1 1 0 1 1 0 0 0 1 1 1 1 1 2 1 2 1 1 2 1 1 1 1 1 1 1 1 1 1 1 1 1 2 3 3 3 4 4 5 4 5 9
1 1 1 1 1 1 1 1 0 0 0 1 1 1 2 2 1 1 1 2 1 1 1 1 1 1 1 1 1 1 0 0 1 1 2 2 3 4 4 5 4 4 4
1 1 1 1 1 1 1 1 1 1 0 0 1 1 2 2 2 1 1 1 1 1 1 1 1 1 1 1 2 2 2 2 1 1 1 2 3 3 4 5 5 5 4
1 1 1 1 1 1 1 0 0 1 1 1 1 1 1 2 1 1 1 1 1 1 1 1 1 2 1 1 2 2 2 2 2 1 1 1 2 3 3 4 4 5 5
2 2 1 1 1 1 1 1 2 1 2 1 1 1 1 1 2 2 2 1 1 1 1 2 2 2 2 2 1 2 2 2 2 2 1 1 3 3 4 3 4 4 4
3 2 1 1 1 1 1 2 2 2 2 1 1 1 1 1 1 1 2 2 1 1 1 1 1 2 2 2 2 2 2 2 2 3 4 3 3 3 4 4 3 4 4
2 2 2 2 2 2 2 2 3 3 3 2 2 1 1 1 1 1 1 1 1 1 1 1 1 1 1 2 2 2 2 2 2 3 4 5 5 4 5 4 3 4 4
Wind_Direction
113 71 20 56 92 92 89 88 90 95 96 93 89 85 83 82 81 77 75 74 75 76 75 74 71 70 68 66 64 62 60 57 53 51 54 55 52 54 53 48 35 55 51
128 116 49 59 95 95 90 86 90 91 93 93 90 86 84 82 82 80 77 77 75 75 74 72 71 69 67 64 63 59 56 54 50 46 42 64 56 48 49 47 37 43 46
111 110 103 68 88 92 89 86 86 89 89 92 93 90 86 83 82 81 79 77 75 73 72 71 68 67 65 62 58 55 52 50 50 40 19 55 61 49 44 46 43 41 41
109 104 93 68 81 89 87 84 84 86 87 88 89 88 84 82 80 79 78 73 71 68 68 68 66 62 59 58 55 52 47 44 40 3 36 46 50 48 38 38 35 32 29
104 96 77 61 71 81 84 81 79 81 83 83 81 80 80 78 74 73 73 70 66 64 64 64 61 58 55 51 49 48 45 39 21 356 41 37 40 39 26 30 27 26 22
97 93 81 60 67 71 77 79 78 78 80 80 78 73 70 71 70 68 68 67 62 59 59 58 57 55 51 49 45 44 41 28 344 32 32 29 32 34 23 25 25 27 25
93 82 85 65 65 68 70 73 77 77 77 76 75 71 66 65 64 63 63 62 58 55 55 56 56 52 48 48 47 45 41 18 16 32 24 20 25 22 24 30 29 27 26
93 84 81 60 55 59 63 67 68 73 73 74 72 70 67 64 59 56 56 56 54 52 53 53 51 49 46 47 49 46 35 10 32 32 21 21 32 27 29 34 35 35 37
88 85 82 85 74 62 57 57 60 64 68 70 70 67 61 58 53 47 46 48 49 49 50 48 46 46 47 48 47 47 40 19 17 33 25 23 29 26 26 27 27 28 32
81 78 80 84 83 89 82 62 57 59 62 66 64 61 60 59 54 45 42 42 43 46 47 46 44 46 50 50 50 48 35 7 34 33 24 30 27 26 27 27 30 37 38
70 67 68 74 81 83 88 75 69 64 61 66 65 58 60 62 61 55 42 37 41 42 44 46 46 46 48 59 54 41 16 32 38 31 26 26 23 23 26 28 29 36 38
63 52 55 65 68 80 80 90 84 74 77 76 73 68 59 52 45 41 51 39 37 36 41 43 41 40 15 49 65 40 32 33 36 37 31 23 22 25 26 25 27 29 30
62 48 38 40 47 61 82 89 75 68 68 73 69 65 64 57 50 35 37 46 37 30 33 40 27 23 26 23 20 30 30 26 33 35 31 24 21 23 22 22 22 21 21
58 32 32 37 42 48 54 75 79 70 58 64 63 51 52 51 34 25 17 15 14 6 8 9 10 22 30 32 33 35 33 28 32 32 34 29 26 24 22 20 18 15 13
11 353 2 17 28 53 57 71 85 66 55 52 43 37 25 32 30 26 20 8 1 359 354 354 8 15 28 34 37 39 38 36 33 32 39 37 28 25 21 18 15 12 12
322 326 350 16 15 61 72 78 89 82 62 47 44 33 23 14 22 15 17 7 358 349 342 342 359 9 26 34 37 35 36 39 37 28 28 35 35 25 20 18 15 14 13
304 312 342 16 26 37 86 102 71 75 71 48 43 35 28 11 1 356 355 355 342 340 340 348 1 5 23 31 33 31 30 34 38 26 23 17 26 31 23 17 15 12 10
306 329 354 29 33 37 53 94 73 68 73 52 28 31 23 8 348 327 339 331 332 337 344 352 352 2 7 11 10 14 19 30 35 28 26 20 15 16 22 22 16 13 10
331 344 15 34 354 321 15 82 78 66 68 60 40 33 16 10 358 337 325 319 324 330 335 340 341 332 346 8 0 356 358 6 23 31 33 30 25 19 12 23 18 14 9
356 358 349 347 302 269 228 155 84 64 49 48 44 31 19 15 5 349 342 336 336 334 333 322 312 322 322 347 352 2 7 8 26 29 25 27 22 18 13 8 6 7 7
351 360 344 322 303 291 275 258 253 303 14 22 24 20 16 9 2 350 328 332 340 336 317 301 280 282 343 338 299 326 299 162 59 21 13 12 18 12 6 4 3 353 352
328 329 290 284 281 290 302 300 263 257 259 302 344 7 10 3 348 343 326 317 322 299 301 308 311 276 305 310 282 279 267 229 182 323 353 15 6 1 359 359 359 355 343
297 292 284 292 295 289 275 244 182 229 234 239 300 332 353 350 348 341 316 311 328 311 291 287 279 269 277 274 291 281 273 276 320 245 306 339 353 345 337 342 347 345 342
290 283 279 286 291 279 251 221 223 236 246 254 284 305 334 344 344 335 312 307 320 315 305 293 290 277 270 267 272 292 302 310 278 285 261 305 329 320 320 322 323 328 330
288 288 275 266 264 262 244 235 227 244 252 242 243 279 295 310 316 325 325 319 329 334 321 308 301 294 284 282 282 286 284 288 271 274 285 301 305 302 305 300 300 308 315
295 289 280 258 259 258 241 235 230 236 237 230 232 246 262 277 288 320 331 332 334 336 330 319 307 299 292 289 290 292 287 280 277 275 283 296 299 300 296 283 284 301 305